KF6ILA Weather Reports


time (UTC)temp
F
wind
direction
speed
knots
gust
knots
rain 1hr
in
rain 24hr
in
rain mn
in
humidity
%
barometer
mb
20260507164144 76 81 5.2 11.3 0.00 0.00 0.00 34 1016.9
20260507163648 76 87 6.1 11.3 0.00 0.00 0.00 33 1017.0
20260507163150 76 94 5.2 9.6 0.00 0.00 0.00 34 1016.9
20260507162653 76 91 4.3 9.6 0.00 0.00 0.00 33 1017.1
20260507162156 75 73 2.6 6.1 0.00 0.00 0.00 35 1017.1
20260507161700 75 80 3.5 10.4 0.00 0.00 0.00 34 1017.0
20260507161202 75 96 5.2 10.4 0.00 0.00 0.00 36 1017.1
20260507160705 75 66 5.2 7.8 0.00 0.00 0.00 34 1017.1
20260507154221 73 100 2.6 7.0 0.00 0.00 0.00 38 1017.1
20260507153227 72 96 0.9 6.1 0.00 0.00 0.00 39 1017.2
20260507152233 72 58 3.5 5.2 0.00 0.00 0.00 37 1017.1
20260507151736 72 56 3.5 6.1 0.00 0.00 0.00 37 1017.2
20260507150742 71 61 3.5 5.2 0.00 0.00 0.00 41 1016.3
20260507150244 71 51 2.6 4.3 0.00 0.00 0.00 40 1016.3
20260507145747 70 79 0.9 2.6 0.00 0.00 0.00 43 1016.3
20260507145250 69 0 0.0 4.3 0.00 0.00 0.00 42 1016.3
20260507144753 67 60 1.7 4.3 0.00 0.00 0.00 48 1016.3
20260507134830 59 0 0.0 0.9 0.00 0.00 0.00 47 1016.4
20260507134333 58 0 0.0 0.9 0.00 0.00 0.00 46 1016.5
20260507133339 57 0 0.0 1.7 0.00 0.00 0.00 46 1016.4
20260507131351 56 0 0.0 1.7 0.00 0.00 0.00 48 1016.2
20260507125403 56 0 0.0 2.6 0.00 0.00 0.00 51 1016.0
20260507124906 56 227 1.7 3.5 0.00 0.00 0.00 50 1016.0
20260507123912 57 236 1.7 3.5 0.00 0.00 0.00 49 1016.0
20260507122918 57 0 0.0 0.0 0.00 0.00 0.00 49 1015.9
20260507121427 58 0 0.0 0.0 0.00 0.00 0.00 48 1015.9
20260507115439 58 0 0.0 0.0 0.00 0.00 0.00 48 1016.0
20260507114445 58 0 0.0 0.0 0.00 0.00 0.00 47 1015.2
20260507113948 59 0 0.0 0.0 0.00 0.00 0.00 47 1015.2
20260507112457 58 0 0.0 2.6 0.00 0.00 0.00 49 1015.3
20260507112000 58 311 0.9 1.7 0.00 0.00 0.00 49 1015.4
20260507111006 58 311 0.9 1.7 0.00 0.00 0.00 50 1015.3
20260507110012 57 304 0.9 3.5 0.00 0.00 0.00 51 1015.4
20260507105018 57 253 2.6 4.3 0.00 0.00 0.00 52 1015.4
20260507104521 57 0 0.0 2.6 0.00 0.00 0.00 51 1015.4
20260507103030 56 0 0.0 0.0 0.00 0.00 0.00 53 1015.4
20260507102533 56 0 0.0 0.0 0.00 0.00 0.00 53 1015.5
20260507102036 56 0 0.0 0.9 0.00 0.00 0.00 54 1015.5
20260507101042 56 0 0.0 1.7 0.00 0.00 0.00 55 1015.6
20260507100048 56 0 0.0 0.9 0.00 0.00 0.00 56 1015.6
20260507095551 56 0 0.0 1.7 0.00 0.00 0.00 55 1015.7
20260507093603 55 0 0.0 2.6 0.00 0.00 0.00 60 1015.9
20260507093106 55 0 0.0 2.6 0.00 0.00 0.00 61 1016.1
20260507092609 55 0 0.0 3.5 0.00 0.00 0.00 61 1016.0
20260507091118 56 323 2.6 5.2 0.00 0.00 0.00 61 1016.1
20260507090621 56 294 2.6 5.2 0.00 0.00 0.00 61 1016.2
20260507085627 56 291 2.6 4.3 0.00 0.00 0.00 60 1016.3
20260507085130 56 294 0.9 4.3 0.00 0.00 0.00 60 1016.4
20260507084633 57 296 1.7 5.2 0.00 0.00 0.00 60 1016.5
20260507084136 57 293 3.5 5.2 0.00 0.00 0.00 60 1016.5
20260507083639 57 303 2.6 6.1 0.00 0.00 0.00 60 1016.5
20260507083142 57 298 3.5 6.1 0.00 0.00 0.00 59 1016.5
20260507081651 57 292 3.5 6.1 0.00 0.00 0.00 58 1016.5
20260507081154 57 284 4.3 6.1 0.00 0.00 0.00 58 1016.6
20260507075703 57 288 3.5 7.8 0.00 0.00 0.00 59 1016.7
20260507075206 57 281 4.3 7.8 0.00 0.00 0.00 59 1016.7
20260507073715 57 298 3.5 7.8 0.00 0.00 0.00 61 1016.7
20260507072721 57 295 3.5 7.0 0.00 0.00 0.00 62 1016.6
20260507071727 57 287 4.3 7.0 0.00 0.00 0.00 63 1016.9
20260507070733 57 284 5.2 7.8 0.00 0.00 0.00 63 1016.9
20260507070236 57 288 5.2 8.7 0.00 0.00 0.00 64 1017.0
20260507065739 57 286 7.0 8.7 0.00 0.00 0.00 64 1016.9
20260507065242 57 294 4.3 8.7 0.00 0.00 0.00 64 1017.0
20260507064817 57 290 6.1 8.7 0.00 0.00 0.00 64 1017.0
20260507064745 57 290 6.1 8.7 0.00 0.00 0.00 64 1017.0
20260507064248 57 290 6.1 8.7 0.00 0.00 0.00 65 1017.1
20260507063751 57 284 5.2 7.8 0.00 0.00 0.00 65 1017.1
20260507063254 57 282 5.2 7.8 0.00 0.00 0.00 65 1016.4
20260507062757 57 282 5.2 7.8 0.00 0.00 0.00 65 1016.4
20260507062300 57 286 5.2 7.8 0.00 0.00 0.00 65 1016.3
20260507061803 57 288 5.2 7.8 0.00 0.00 0.00 64 1016.3
20260507060809 57 294 5.2 7.8 0.00 0.00 0.00 65 1016.3
20260507060312 57 292 4.3 7.0 0.00 0.00 0.00 65 1016.4
20260507055318 57 282 3.5 6.1 0.00 0.00 0.00 65 1016.6
20260507054821 57 286 2.6 7.8 0.00 0.00 0.00 65 1016.5
20260507054324 57 284 5.2 7.8 0.00 0.00 0.00 66 1016.4
20260507053827 57 286 5.2 7.8 0.00 0.00 0.00 66 1016.4
20260507051342 56 284 5.2 7.8 0.00 0.00 0.00 69 1016.6
20260507045851 56 283 5.2 7.0 0.00 0.00 0.00 72 1016.6
20260507045354 56 283 4.3 7.0 0.00 0.00 0.00 72 1016.6
20260507044857 56 282 5.2 7.0 0.00 0.00 0.00 72 1016.6
20260507043903 57 289 5.2 7.8 0.00 0.00 0.00 72 1016.6
20260507043406 57 290 4.3 7.8 0.00 0.00 0.00 72 1016.6
20260507042412 57 285 5.2 8.7 0.00 0.00 0.00 73 1016.6
20260507041915 57 287 4.3 8.7 0.00 0.00 0.00 74 1016.6
20260507041418 57 288 6.1 8.7 0.00 0.00 0.00 74 1016.7
20260507040424 56 290 4.3 8.7 0.00 0.00 0.00 76 1016.6
20260507035927 56 285 5.2 8.7 0.00 0.00 0.00 77 1016.5
20260507034933 55 280 5.2 7.8 0.00 0.00 0.00 78 1016.4
20260507034436 55 281 5.2 8.7 0.00 0.00 0.00 78 1016.2
20260507033939 55 285 6.1 8.7 0.00 0.00 0.00 78 1016.2
20260507032945 54 289 4.3 7.0 0.00 0.00 0.00 82 1016.2
20260507032448 54 285 4.3 6.1 0.00 0.00 0.00 82 1016.3
20260507030957 54 284 4.3 7.8 0.00 0.00 0.00 85 1016.2
20260507030500 54 284 5.2 7.8 0.00 0.00 0.00 86 1016.2
20260507025506 54 281 5.2 7.8 0.00 0.00 0.00 87 1016.2
20260507025009 55 290 4.3 7.0 0.00 0.00 0.00 87 1016.3
20260507024512 55 290 5.2 7.0 0.00 0.00 0.00 87 1016.2
20260507023021 55 289 3.5 10.4 0.00 0.00 0.00 85 1016.1
20260507022524 56 269 4.3 10.4 0.00 0.00 0.00 85 1016.0
20260507022027 56 273 5.2 10.4 0.00 0.00 0.00 84 1016.0
20260507021033 58 280 5.2 10.4 0.00 0.00 0.00 81 1015.9
20260507020535 0 276 7.0 0.0 0.00 0.00 0.00
20260507020039 59 293 5.2 10.4 0.00 0.00 0.00 79 1015.9
20260507015542 59 274 6.1 11.3 0.00 0.00 0.00 78 1015.9
20260507015045 60 271 7.0 11.3 0.00 0.00 0.00 78 1015.8
20260507014548 60 280 5.2 9.6 0.00 0.00 0.00 77 1015.8
20260507014051 60 273 6.1 9.6 0.00 0.00 0.00 76 1015.8
20260507013554 61 275 5.2 9.6 0.00 0.00 0.00 76 1015.9
20260507013057 61 284 5.2 11.3 0.00 0.00 0.00 76 1015.9
20260507012644 61 281 6.1 13.0 0.00 0.00 0.00 75 1016.0
20260507012600 61 281 6.1 13.0 0.00 0.00 0.00 75 1016.0
20260507012103 61 269 8.7 13.0 0.00 0.00 0.00 74 1016.0
20260507011650 62 274 7.8 11.3 0.00 0.00 0.00 73 1015.9
20260507011606 62 274 7.8 11.3 0.00 0.00 0.00 73 1015.9
20260507011109 62 263 7.0 11.3 0.00 0.00 0.00 72 1016.0
20260507010612 62 278 5.2 11.3 0.00 0.00 0.00 73 1016.0
20260507005121 63 277 7.8 13.0 0.00 0.00 0.00 70 1015.2
20260507004659 63 275 8.7 13.0 0.00 0.00 0.00 68 1015.2
20260507004624 63 275 8.7 13.0 0.00 0.00 0.00 68 1015.2
20260507003133 64 272 7.0 11.3 0.00 0.00 0.00 66 1015.3
20260507001220 64 263 6.1 12.2 0.00 0.00 0.00 67 1015.3
20260507001145 64 263 6.1 12.2 0.00 0.00 0.00 67 1015.3
20260506235654 64 248 7.8 12.2 0.00 0.00 0.00 65 1015.2
20260506232712 65 277 8.7 14.8 0.00 0.00 0.00 64 1015.1
20260506225730 66 286 8.7 11.3 0.00 0.00 0.00 59 1015.3
20260506224736 67 277 5.2 12.2 0.00 0.00 0.00 60 1015.5
20260506223742 66 261 6.1 9.6 0.00 0.00 0.00 58 1015.6
20260506223245 66 292 3.5 10.4 0.00 0.00 0.00 62
20260506222251 65 280 8.7 14.8 0.00 0.00 0.00 61 1015.8
20260506221257 65 280 6.1 13.0 0.00 0.00 0.00 60 1015.9
20260506220303 65 280 7.8 12.2 0.00 0.00 0.00 61 1016.0
20260506214812 66 281 7.0 10.4 0.00 0.00 0.00 60 1015.4
20260506212824 65 253 4.3 11.3 0.00 0.00 0.00 61 1015.6
20260506212327 65 268 6.1 0.0 0.00 0.00 0.00 63 1015.5
20260506210836 64 298 5.2 535.3 0.00 0.00 0.00 61 1015.8
20260506203854 65 282 6.1 9.6 0.00 0.00 0.00 63 1015.9
20260506195421 64 334 1.7 8.7 0.00 0.00 0.00 58 1016.5
20260506193433 64 325 4.3 7.8 0.00 0.00 0.00 63 1016.6
20260506191445 66 4 1.7 7.8 0.00 0.00 0.00 60 1016.7
20260506190451 68 74 5.2 10.4 0.00 0.00 0.00 49 1015.8
20260506185954 68 95 3.5 10.4 0.00 0.00 0.00 43 1015.9
20260506185457 68 54 4.3 11.3 0.00 0.00 0.00 45 1016.0
20260506185000 67 82 7.0 11.3 0.00 0.00 0.00 48 1016.0
20260506184503 67 97 7.0 10.4 0.00 0.00 0.00 47 1016.0
20260506184005 66 32 2.6 11.3 0.00 0.01 0.00 45 1016.0
20260506183509 66 55 4.3 11.3 0.00 0.01 0.00 46 1016.0
20260506183012 65 79 5.2 10.4 0.00 0.01 0.00 50 1016.1
20260506182514 64 78 5.2 10.4 0.00 0.01 0.00 53 1016.1
20260506182018 63 33 4.3 7.0 0.00 0.01 0.00 50 1016.1
20260506181521 62 47 3.5 7.0 0.00 0.01 0.00 53 1016.2
20260506181024 62 318 0.9 6.1 0.00 0.01 0.00 60 1016.3
20260506174539 61 228 1.7 4.3 0.00 0.02 0.00 61 1016.4
20260506173047 61 230 0.9 7.0 0.00 0.03 0.00 62 1016.4
20260506172054 62 312 2.6 7.8 0.00 0.04 0.00 56 1016.5
20260506171557 62 23 2.6 7.8 0.00 0.04 0.00 46 1016.6
20260506171059 62 92 3.5 7.8 0.00 0.04 0.00 51 1016.5
20260506170602 62 172 2.6 7.8 0.00 0.04 0.00 53 1016.5
20260506170106 62 84 1.7 6.1 0.00 0.05 0.00 52 1016.5
20260506165609 62 141 0.9 8.7 0.00 0.05 0.00 46 1016.5
20260506165112 62 37 3.5 8.7 0.00 0.06 0.00 53 1016.4
20260506164615 61 38 1.7 10.4 0.00 0.06 0.00 55 1016.4